Find Starlink 3287

NORAD ID: 50172 Int'l Des: 2021-125 Owner: SPXS Country: US Constellation: starlink operational
LEOCIRCULAR

当前视图

正在加载3D地球...

About Starlink 3287

Starlink 3287 (NORAD 50172) is a starlink constellation satellite (v1.5) launched Dec 18, 2021 by SPXS of US. It operates in LEO, CIRCULAR orbit with a mass of 290.00 kg.

关于 Starlink 3287

正在加载描述...

即将过境

Passes for default location (London). Set your location on the main map for personalized predictions.

高度历史

Loading altitude history...

两行轨道根数

1 50172U 21125S 26196.80216622 .00141792 00000-0 84651-2 0 9997
2 50172 53.1617 33.7208 0001713 100.9456 259.1728 15.10048978255975
Epoch: Jul 15, 2026 • Age: 7 hours

当前状态

高度 537.5 km
远地点 / 近地点 N/A
速度 7.60 km/s
星下点 33.41°N, 101.06°E
发射日期 Dec 18, 2021
运行时间 4.5 years
类型 internet

技术详情

分类 Payload
质量 290.00 kg
干质量 270.00 kg
总质量 290.00 kg
长度 0.20 m
直径 2.80 m
跨度 9.00 m
形状 Box + pan
制造商 SPXS
平台类型 Starlink
阶段状态 In Orbit
所有者/国家 SPXS/US

Most Searched